Location: Lane
(33.5226°N, 79.8788°W)
Time: 05:51:45
(UTC+00:00)

Vanguard 2 - Pass Details

Date: 08 October 2022
Orbit: 553 x 2933 km, 32.9° (Epoch: 26 November)

Event Time Altitude Azimuth Distance (km) Brightness Sun altitude
Rises 18:15:28 0° 265° (W) 4,291 11.6 47.2°
Reaches altitude 10° 18:17:53 10° 265° (W) 3,572 11.4 47.0°
Maximum altitude 18:27:42 88° 178° (S) 2,056 10.6 46.0°
Drops below altitude 10° 18:43:43 10° 91° (E) 5,529 11.7 44.2°
Sets 18:48:28 0° 91° (E) 6,699 12.1 43.7°
